sat.trackr.live / text

‹ back to catalog

JILIN-1

NORAD 40961 · 2015-057D

PAYLOAD ACTIVE UNKNOWN

§ Identity

Operator
Country
PRC
Launch date
2015-10-07
Launch site
JSC
Launch vehicle
Mass (kg)
RCS (m²)
2.29

External: N2YO · Heavens-Above · Gunter

§ Orbital elements

Epoch: 2026-09-20T04:27:12.261312Z

Period
97.41 min
Inclination
97.6585°
Eccentricity
0.0015883
Mean motion
14.78280777 rev/d
Perigee alt
623.6 km
Apogee alt
645.9 km
Semi-major
7,012.9 km
B*
6.4312e-5
RAAN
257.8760°
Arg perigee
318.4295°
Mean anomaly
41.5708°
Rev number
58,964

§ Raw data

JILIN-11 40961U 15057D   26263.18555858  .00000419  00000+0  64312-4 0  99952 40961  97.6585 257.8760 0015883 318.4295  41.5708 14.78280777589642

JSON: /api/v1/satellites/40961 · /tle

For live sub-satellite position, see the globe view (requires WebGL).

§ Visibility from observer

Set your observer location to see the next 7 days of passes ≥ 10°. The values pass through the URL so the page stays shareable.

No JS? Fill the form by hand. The geolocation button needs JavaScript.

§ Radio — SatNOGS DB

ModeDescriptionDownlinkUplink
BPSK Telemetry 2.231 GHz

1 transmitter · refreshed weekly from db.satnogs.org